[[{"header":{"parameterUnit":"m.s-1","parameterCategory":1,"la1":30.2991,"la2":30.254,"lo1":-89.0895,"lo2":-89.0444,"dy":0.0017,"dx":0.0017,"nx":28,"ny":28,"refTime":"2024-12-12T09:00:00:Z","depth":0,"parameterNumber":2,"parameterNumberName":"U-component_of_WINDS"},"data":[0,0,0,0,0,0,0,0,0,0,0,0,0,0,0,0,0,0,0,0,0,0,0,0,0,0,0,0,0,0,0,0,0,0,0,0,0,0,0,0,0,0,0,0,0,0,0,0,0,0,0,0,0,0,0,0,0,0,0.5575,0.5574,0,0.5552,0.5552,0.5552,0.5529,0.5529,0.5529,0.5529,0.5504,0.5504,0.5503,0,0,0,0,0,0,0,0,0,0,0,0,0,0.5598,0.5597,0.5575,0.5574,0.5574,0.5552,0.5552,0.5552,0.5529,0.5529,0.5529,0.5528,0.5504,0.5504,0.5503,0,0,0,0,0,0,0,0,0,0,0,0,0,0.5583,0.5597,0.5575,0.556,0.5559,0.5552,0.5552,0.5552,0.553,0.5529,0.5529,0.5528,0.5504,0.5504,0.5503,0.5509,0,0,0.5502,0.5501,0,0,0,0,0,0,0,0,0.5584,0.5582,0.5563,0.5561,0.556,0.5543,0.5551,0.5537,0.553,0.5541,0.5529,0.5528,0.5517,0.5516,0.5512,0.5507,0.5506,0.5501,0.5501,0.5501,0.5501,0,0,0,0,0,0,0,0.5585,0.5583,0.5566,0.5563,0.5561,0.5555,0.5552,0.5548,0.5532,0.554,0.5538,0.5536,0.5516,0.5513,0.5512,0.5506,0.5501,0.5501,0.5501,0.55,0.5505,0.5505,0,0,0,0,0,0,0.5588,0.5584,0.5567,0.5565,0.5571,0.5555,0.5552,0.5549,0.5532,0.5529,0.5536,0.5535,0.5514,0.5512,0.5511,0.5516,0.5501,0.55,0.55,0.5505,0.5505,0.5506,0,0,0,0,0,0,0.5589,0.5587,0.5567,0.5574,0.5571,0.5555,0.5552,0.5549,0.5545,0.5529,0.5526,0.5536,0.5514,0.5512,0.551,0.5515,0.55,0.55,0.5504,0.5505,0.5505,0.5527,0,0,0,0,0,0,0.5589,0.5587,0.5589,0.5574,0.5571,0.5567,0.5552,0.5549,0.5545,0.5543,0.5528,0.5525,0.5513,0.5511,0.5509,0.5514,0.5499,0.5503,0.5504,0.5505,0.5525,0.5528,0.553,0,0,0,0,0,0.559,0.5595,0.5589,0.5587,0.5573,0.5567,0.5565,0.5552,0.5545,0.5547,0.5537,0.5525,0.5515,0.551,0.5509,0.5513,0.5503,0.5504,0.5505,0.5524,0.5528,0.553,0,0,0,0,0,0,0.561,0.5593,0.5586,0.5587,0.5579,0.5563,0.5565,0.5556,0.5549,0.5547,0.5531,0.5528,0.5528,0.552,0.5516,0.5518,0.5507,0.5508,0.5523,0.5526,0.5528,0.5529,0.5499,0,0,0,0,0,0.5615,0.5612,0.5597,0.5599,0.5595,0.5581,0.5578,0.5569,0.556,0.5556,0.5545,0.5537,0.5531,0.5528,0.5522,0.5525,0.5521,0.5527,0.553,0.5532,0.5532,0.5533,0.5536,0.5509,0.5509,0.5509,0,0,0.5624,0.5614,0.5613,0.5603,0.5595,0.5593,0.5578,0.5576,0.5573,0.5555,0.5553,0.5545,0.5534,0.5535,0.5534,0.5528,0.5539,0.5533,0.5535,0.5534,0.5535,0.5537,0.5539,0.551,0.551,0.5509,0,0,0.5639,0.5632,0.5633,0.5626,0.5616,0.5606,0.5607,0.5593,0.5587,0.5585,0.5572,0.5569,0.556,0.5553,0.5548,0.5563,0.5552,0.5561,0.5573,0.5575,0.5577,0.5579,0.5584,0.5586,0.5562,0.5562,0.5562,0,0.5652,0.5647,0.5634,0.5633,0.5629,0.5613,0.5614,0.5608,0.5596,0.5594,0.5588,0.5577,0.5569,0.5567,0.5571,0.5568,0.5568,0.5562,0.5578,0.5579,0.5581,0.5586,0.5587,0.5563,0.5563,0.5563,0.5563,0,0.5663,0.566,0.5662,0.5652,0.5648,0.5648,0.5635,0.5633,0.5624,0.5616,0.5614,0.5603,0.5596,0.5595,0.5586,0.5593,0.5589,0.5581,0.557,0.5585,0.5589,0.5591,0.5565,0.5564,0.5564,0.5564,0,0,0.5689,0.5673,0.5673,0.5669,0.5657,0.5654,0.5654,0.5647,0.5645,0.5638,0.5637,0.5631,0.5623,0.5618,0.5608,0.561,0.5622,0.5601,0.56,0.5605,0.5629,0.5635,0.5637,0.5615,0.5616,0.5616,0.5629,0,0.5702,0.57,0.5689,0.569,0.5688,0.5674,0.5673,0.5666,0.5658,0.5655,0.5646,0.5642,0.5632,0.5629,0.563,0.562,0.5626,0.5619,0.5614,0.5614,0.5616,0.5639,0.5645,0.5659,0.5631,0.5631,0.5631,0,0.5716,0.5711,0.5712,0.5701,0.5699,0.5699,0.5692,0.5689,0.5681,0.5675,0.567,0.566,0.5659,0.5649,0.5647,0.5643,0.564,0.5635,0.5635,0.5634,0.5623,0.5638,0.5662,0.5664,0.5634,0.5634,0.5633,0,0.5735,0.5728,0.5728,0.5724,0.5711,0.5712,0.5706,0.5697,0.5694,0.5688,0.5686,0.568,0.5677,0.5672,0.5661,0.5655,0.566,0.5649,0.5655,0.5656,0.5656,0.5656,0.568,0.5655,0.5655,0.5655,0.5655,0,0.575,0.5751,0.5736,0.5736,0.5737,0.5725,0.5726,0.5719,0.5712,0.571,0.5698,0.5697,0.5682,0.5679,0.567,0.567,0.5669,0.5664,0.5662,0.5665,0.5665,0.5662,0.5661,0.5656,0.5656,0.5656,0.5656,0,0.5771,0.576,0.576,0.5748,0.5745,0.5746,0.5736,0.5736,0.5728,0.5726,0.5725,0.5713,0.5709,0.5697,0.569,0.5684,0.5686,0.5682,0.5689,0.5688,0.5694,0.5694,0.5717,0.5719,0.5693,0.5694,0.5694,0,0.5781,0.5781,0.577,0.5769,0.5764,0.5761,0.5758,0.5747,0.5744,0.5735,0.5736,0.5731,0.5727,0.5721,0.5711,0.5706,0.5701,0.571,0.57,0.5704,0.5701,0.5701,0.5701,0.5712,0.5712,0.5712,0.5712,0,0.58,0.5795,0.5791,0.5786,0.5783,0.5779,0.5773,0.5773,0.5759,0.5757,0.5754,0.575,0.5744,0.5739,0.5733,0.5727,0.5717,0.5716,0.5717,0.572,0.5724,0.5722,0.5695,0.5715,0.5715,0.5715,0.5714,0.5714,0.5815,0.5815,0.5808,0.5805,0.58,0.5795,0.5794,0.5787,0.5784,0.5778,0.5771,0.5768,0.5761,0.5751,0.5746,0.5744,0.5739,0.574,0.574,0.5741,0.5743,0.5725,0.5742,0.5742,0.5742,0.5742,0.5742,0,0.5833,0.5828,0.5825,0.5819,0.5816,0.5809,0.5803,0.5801,0.5799,0.5793,0.5789,0.5785,0.5781,0.5772,0.5767,0.5767,0.5762,0.5766,0.5765,0.5764,0.5747,0.5747,0.5769,0.5769,0.5769,0.5769,0.5769,0.5769,0.5843,0.5843,0.5837,0.5835,0.583,0.5828,0.5825,0.5821,0.5816,0.5812,0.5809,0.5803,0.5796,0.5791,0.5787,0.5784,0.5783,0.5788,0.5783,0.5768,0.5765,0.5763,0.5762,0.5787,0.5787,0.58,0.5801,0.5801]},{"header":{"parameterUnit":"m.s-1","parameterCategory":1,"la1":30.2991,"la2":30.254,"lo1":-89.0895,"lo2":-89.0444,"dy":0.0017,"dx":0.0017,"nx":28,"ny":28,"refTime":"2024-12-12T09:00:00:Z","depth":0,"parameterNumber":3,"parameterNumberName":"V-component_of_WINDS"},"data":[0,0,0,0,0,0,0,0,0,0,0,0,0,0,0,0,0,0,0,0,0,0,0,0,0,0,0,0,0,0,0,0,0,0,0,0,0,0,0,0,0,0,0,0,0,0,0,0,0,0,0,0,0,0,0,0,0,0,-4.0962,-4.0964,0,-4.113,-4.1132,-4.1134,-4.1098,-4.1095,-4.1092,-4.1089,-4.1261,-4.1268,-4.1276,0,0,0,0,0,0,0,0,0,0,0,0,0,-4.0609,-4.0616,-4.0962,-4.0964,-4.0966,-4.113,-4.1132,-4.1135,-4.1099,-4.1095,-4.1091,-4.1088,-4.1259,-4.1267,-4.1276,0,0,0,0,0,0,0,0,0,0,0,0,0,-4.0769,-4.0618,-4.0962,-4.0968,-4.097,-4.113,-4.1132,-4.1135,-4.11,-4.1095,-4.109,-4.1086,-4.1256,-4.1267,-4.1278,-4.1441,0,0,-4.1312,-4.1317,0,0,0,0,0,0,0,0,-4.076,-4.0782,-4.0965,-4.0968,-4.0971,-4.1089,-4.1071,-4.1238,-4.1101,-4.1051,-4.1089,-4.1084,-4.1207,-4.1222,-4.1264,-4.1449,-4.1456,-4.1313,-4.132,-4.1325,-4.1328,0,0,0,0,0,0,0,-4.0749,-4.0774,-4.1029,-4.0968,-4.0971,-4.0963,-4.098,-4.1102,-4.1153,-4.1055,-4.1052,-4.1073,-4.1208,-4.1253,-4.1268,-4.1459,-4.1313,-4.1323,-4.133,-4.1334,-4.1785,-4.179,0,0,0,0,0,0,-4.0735,-4.0765,-4.1023,-4.1034,-4.0852,-4.0973,-4.0992,-4.1056,-4.1152,-4.1162,-4.1077,-4.1071,-4.1237,-4.1255,-4.1274,-4.1471,-4.1325,-4.1335,-4.1342,-4.178,-4.1786,-4.1792,0,0,0,0,0,0,-4.0728,-4.0759,-4.1016,-4.0899,-4.0931,-4.0984,-4.1055,-4.1061,-4.1107,-4.1169,-4.1177,-4.1114,-4.1234,-4.1258,-4.14,-4.1477,-4.134,-4.135,-4.1774,-4.1782,-4.1789,-4.1867,0,0,0,0,0,0,-4.0718,-4.0756,-4.0819,-4.0901,-4.0938,-4.114,-4.106,-4.1068,-4.1126,-4.112,-4.1206,-4.1215,-4.1232,-4.1383,-4.1411,-4.149,-4.1359,-4.1767,-4.1777,-4.1787,-4.1858,-4.1876,-4.1892,0,0,0,0,0,-4.0705,-4.0834,-4.0822,-4.0853,-4.1017,-4.1144,-4.1165,-4.1182,-4.1132,-4.1196,-4.1235,-4.1213,-4.1464,-4.1398,-4.1429,-4.1512,-4.1762,-4.1775,-4.1786,-4.185,-4.1873,-4.1892,0,0,0,0,0,0,-4.0759,-4.0845,-4.0833,-4.0991,-4.1061,-4.1138,-4.1218,-4.1205,-4.129,-4.1281,-4.1297,-4.1317,-4.1461,-4.1501,-4.1426,-4.1675,-4.1606,-4.1624,-4.1644,-4.1666,-4.1683,-4.1671,-4.1368,0,0,0,0,0,-4.079,-4.0886,-4.0955,-4.1089,-4.1124,-4.1165,-4.1221,-4.1228,-4.1301,-4.133,-4.138,-4.1451,-4.1546,-4.1608,-4.1699,-4.1863,-4.1881,-4.1936,-4.1953,-4.1967,-4.1983,-4.2073,-4.2098,-4.1831,-4.1831,-4.1831,0,0,-4.0854,-4.0912,-4.0972,-4.1101,-4.1156,-4.1255,-4.119,-4.1298,-4.1372,-4.1346,-4.1483,-4.1522,-4.1603,-4.1756,-4.1826,-4.1794,-4.2061,-4.1982,-4.1993,-4.2001,-4.2087,-4.2113,-4.2135,-4.1839,-4.1837,-4.1836,0,0,-4.1021,-4.1075,-4.1192,-4.1248,-4.1331,-4.1358,-4.1386,-4.1465,-4.149,-4.1628,-4.1611,-4.1699,-4.1862,-4.192,-4.1971,-4.216,-4.2142,-4.2189,-4.228,-4.2367,-4.2388,-4.2407,-4.2475,-4.2499,-4.2204,-4.2205,-4.2205,0,-4.1089,-4.1238,-4.1253,-4.1363,-4.142,-4.1402,-4.152,-4.1574,-4.1683,-4.1723,-4.1685,-4.1889,-4.1942,-4.2109,-4.2155,-4.2197,-4.2229,-4.2179,-4.2384,-4.2403,-4.2421,-4.2485,-4.2511,-4.221,-4.2209,-4.2209,-4.2208,0,-4.1319,-4.1423,-4.1507,-4.1613,-4.168,-4.1793,-4.1825,-4.1891,-4.1892,-4.1923,-4.2063,-4.2126,-4.2229,-4.2269,-4.2271,-4.2436,-4.2413,-4.238,-4.2311,-4.2451,-4.2512,-4.2537,-4.2217,-4.2215,-4.2214,-4.2213,0,0,-4.1525,-4.1637,-4.1668,-4.1716,-4.1807,-4.1887,-4.2,-4.2101,-4.2157,-4.2233,-4.2328,-4.2466,-4.2435,-4.2493,-4.2501,-4.2578,-4.2724,-4.2535,-4.2537,-4.2568,-4.2911,-4.2936,-4.2964,-4.2713,-4.2717,-4.2721,-4.2904,0,-4.17,-4.1899,-4.1916,-4.2095,-4.2191,-4.2174,-4.2272,-4.2339,-4.237,-4.2456,-4.2491,-4.2589,-4.2541,-4.2576,-4.2651,-4.269,-4.2793,-4.2677,-4.2801,-4.2806,-4.2782,-4.2996,-4.3023,-4.3193,-4.2928,-4.2932,-4.2935,0,-4.1932,-4.2014,-4.2203,-4.228,-4.2321,-4.2409,-4.2503,-4.2585,-4.266,-4.2678,-4.2742,-4.274,-4.2856,-4.2783,-4.2943,-4.2864,-4.2915,-4.2942,-4.2949,-4.2962,-4.2879,-4.3015,-4.3247,-4.3273,-4.2973,-4.297,-4.2967,0,-4.2063,-4.2221,-4.2355,-4.2396,-4.249,-4.2552,-4.2594,-4.2664,-4.2724,-4.2806,-4.2845,-4.2939,-4.2991,-4.3064,-4.3087,-4.3032,-4.3247,-4.3175,-4.3264,-4.3264,-4.3311,-4.3307,-4.3555,-4.3344,-4.3343,-4.3343,-4.3342,0,-4.2257,-4.2373,-4.2415,-4.2497,-4.2627,-4.2645,-4.2772,-4.2811,-4.2873,-4.2962,-4.2954,-4.3038,-4.3063,-4.3152,-4.3171,-4.33,-4.3324,-4.3341,-4.3345,-4.3342,-4.334,-4.3376,-4.3365,-4.3349,-4.3348,-4.3347,-4.3345,0,-4.2426,-4.2459,-4.2603,-4.268,-4.2702,-4.2794,-4.286,-4.2939,-4.2968,-4.3081,-4.3109,-4.3156,-4.326,-4.329,-4.3415,-4.3427,-4.358,-4.3572,-4.3554,-4.3555,-4.3642,-4.3634,-4.3922,-4.3961,-4.3724,-4.3726,-4.3728,0,-4.2548,-4.2637,-4.2723,-4.2783,-4.2827,-4.2922,-4.2983,-4.3004,-4.3068,-4.316,-4.3228,-4.333,-4.3413,-4.358,-4.3625,-4.372,-4.3715,-4.381,-4.373,-4.3724,-4.3717,-4.3712,-4.3721,-4.3825,-4.3827,-4.3829,-4.3831,0,-4.2761,-4.2773,-4.2861,-4.2956,-4.3028,-4.3103,-4.3176,-4.3225,-4.3256,-4.3328,-4.3434,-4.3498,-4.3625,-4.3727,-4.3824,-4.3867,-4.3855,-4.3856,-4.3882,-4.388,-4.3866,-4.3875,-4.3596,-4.3849,-4.3848,-4.3846,-4.3845,-4.3844,-4.2911,-4.2989,-4.3062,-4.3161,-4.3217,-4.3285,-4.3363,-4.3403,-4.3491,-4.3597,-4.3603,-4.3718,-4.3791,-4.3919,-4.3967,-4.4057,-4.403,-4.4067,-4.4076,-4.4085,-4.4093,-4.3852,-4.4075,-4.4074,-4.4074,-4.4073,-4.4073,0,-4.3124,-4.317,-4.326,-4.3362,-4.3439,-4.3421,-4.35,-4.3566,-4.3667,-4.3736,-4.3818,-4.3939,-4.4038,-4.4091,-4.4189,-4.4251,-4.4248,-4.4276,-4.4272,-4.4282,-4.4112,-4.408,-4.4277,-4.4277,-4.4277,-4.4277,-4.4277,-4.4277,-4.3244,-4.3375,-4.3396,-4.3555,-4.36,-4.3713,-4.376,-4.3822,-4.3877,-4.4013,-4.4095,-4.4129,-4.4192,-4.4295,-4.4384,-4.4397,-4.4434,-4.4466,-4.4476,-4.4315,-4.4294,-4.4274,-4.4245,-4.4473,-4.4474,-4.4639,-4.464,-4.4642]}]]